Location: Conjunto Santa Maria
(19.9513°S, 43.9599°W)
Time: 13:46:56
(UTC+00:00)

Cosmos 1812 Rocket - Pass Details

Date: 21 January 2021
Orbit: 604 x 633 km, 82.5° (Epoch: 04 March)

Event Time Altitude Azimuth Distance (km) Brightness Sun altitude
Rises 22:32:39 0° 357° (N) 2,845 6.7 -11.9°
Reaches altitude 10° 22:34:51 10° 358° (N) 1,947 5.9 -12.4°
Maximum altitude 22:39:09 84° 86° (E) 615 3.4 -13.3°
Drops below altitude 10° 22:43:31 10° 174° (S) 1,968 6.4 -14.2°
Sets 22:45:44 0° 174° (S) 2,879 7.3 -14.7°
